Hourly Data Report for December 02, 2004

SHERBROOKE A
QUEBEC

45°26'00.000" N
71°41'00.000" W
241.40 m
7028124
71610
YSC

Download Data

Hourly Data (December 2004)
Hourly Data Report for December 2, 2004
TIME
LST
Temp Definition
°C
Dew Point Definition
°C
Rel Hum Definition
%
Precip. Amount Definition
mm

Wind Dir Definition
10's deg

Wind Spd Definition
km/h
Visibility Definition
km
Stn Press Definition
kPa
Hmdx Definition


Wind Chill Definition


Weather Definition


00:00 0.4 -1.8 85   28 30 15.0 97.40     Snow
01:00 -0.2 -2.3 86   27 24 15.0 97.48   -6 Snow
02:00 -0.7 -3.6 81   27 30 15.0 97.61   -7  
03:00 -0.6 -3.5 81   27 26 15.0 97.68   -7  
04:00 -0.3 -3.2 81   27 22 15.0 97.71   -6  
05:00 -0.5 -3.0 83   27 26 15.0 97.75   -7  
06:00 -0.5 -2.8 84   27 20 15.0 97.83   -6 Snow
07:00 -1.4 -3.2 88   29 30 1.4 97.92   -8 Snow
08:00 -1.3 -3.8 83   28 24 8.0 97.98   -7 Snow
09:00 -1.3 -4.3 80   28 24 9.7 98.08   -7 Snow
10:00 -2.7 -5.3 82   30 26 19.3 98.18   -10 Snow
11:00 -2.8 -7.3 71   28 26 16.1 98.20   -10 Snow
12:00 -3.1 -8.4 67   29 24 16.1 98.26   -10 Mostly Cloudy
13:00 -3.9 -9.6 65   28 30 16.1 98.30   -12 Mostly Cloudy
14:00 -4.3 -9.9 65   28 26 16.1 98.34   -12 Mostly Cloudy
15:00 -4.2 -10.2 63   29 20 24.1 98.41   -11 Mostly Cloudy
16:00 -5.0 -10.3 66   28 15 24.1 98.42   -11 Mostly Cloudy
17:00 -5.7 -10.5 69   27 13 24.1 98.44   -11 Mostly Cloudy
18:00 -5.8 -10.9 67   26 13 15.0 98.43   -11  
19:00 -6.2 -11.2 68   25 13 15.0 98.46   -12  
20:00 -8.7 -12.4 75   26 6 15.0 98.48   -12  
21:00 -9.1 -11.3 84   25 4 15.0 98.48   -11  
22:00 -8.9 -11.6 81   28 6 15.0 98.47   -12  
23:00 -10.4 -12.1 87   32 6 15.0 98.43   -14  

Notes on Data Quality.

Legend

  • E = Estimated
  • M = Missing
  • NA = Not Available*
  • [empty] = Indicates an unobserved value
Date modified: